Regional Weather Roundup
Issued by NWS Kansas City/Pleasant Hill, MO

Home | Current Version | Previous Version | Graphics & Text | Print | Product List | Glossary Off
Versions: 1 2 3 4 5 6 7 8 9 10 11 12 13 14 15 16 17 18 19 20 21 22 23 24 25 26 27 28 29 30 31 32 33 34 35 36 37 38 39 40 41 42 43 44 45 46 47 48 49 50

000
ASUS43 KEAX 040810
RWREAX

WEATHER ROUNDUP FOR EASTERN KANSAS AND NORTHWEST MISSOURI
NATIONAL WEATHER SERVICE KANSAS CITY/PLEASANT HILL MO
300 AM CDT TUE AUG 04 2015

KSZ040-057-103>105-MOZ028-029-037-043-040900-
...KANSAS CITY METROPOLITAN AREA...

CITY           SKY/WX    TMP DP  RH WIND       PRES   REMARKS
K.C. INTL      PTCLDY    72  66  81 SE8       29.93F
K.C. DOWNTOWN  PTCLDY    75  68  78 E7        29.92F
LEES SUMMIT    PTCLDY    73  67  81 E6        29.94F
OLATHE - IXD   PTCLDY    74  71  91 CALM      29.94F
OLATHE - OJC   PTCLDY    73  69  87 CALM      29.93F
LAWRENCE       PTCLDY    72  69  90 E5        29.92F

$$

MOZ001>008-011>017-020>025-030>033-038>040-044>046-053-054-040900-
...NORTHERN AND CENTRAL MISSOURI...

CITY           SKY/WX    TMP DP  RH WIND       PRES   REMARKS
ST. JOSEPH     PTCLDY    72  67  84 SE6       29.93S
MOSBY          SUNNY     70  68  94 CALM      29.94R
WARRENSBURG    CLEAR     70  68  94 CALM      29.93S
WHITEMAN AFB   PTCLDY    72  70  94 E1        29.92S
CLINTON        CLEAR     72  72 100 CALM      29.93F
SEDALIA        CLEAR     74  69  85 CALM      29.95S
WARSAW         NOT AVBL
CHILLICOTHE      N/A     72  67  84 VRB3      29.96S
KIRKSVILLE     MOCLDY    67  62  84 NE6       29.97F

$$

MOZ041-047>049-056>058-063>065-088>090-097-040900-
...EASTERN AND SOUTHERN MISSOURI...

CITY           SKY/WX    TMP DP  RH WIND       PRES   REMARKS
ST. LOUIS INTL CLOUDY    79  65  62 NE5       29.95S
SPIRIT OF STL  PTCLDY    74  73  97 CALM      29.93S
COLUMBIA       CLEAR     72  68  87 E8        29.95S
JEFFERSON CITY CLEAR     74  68  81 SE5       29.93F
ROLLA          PTCLDY    72  70  93 S3        29.94F
OSAGE BEACH    CLEAR     72  68  88 CALM      29.94F
SPRINGFIELD    CLEAR     72  67  84 S5        29.97R
BRANSON        CLEAR     72  66  83 MISG      29.99S
JOPLIN         CLEAR     73  65  75 CALM      29.95S
WEST PLAINS    CLEAR     71  67  87 CALM      29.98F

$$

IAZ060-094-KSZ022-034>040-054-083-096-NEZ052-066-093-040900-
...KANSAS...SOUTHEAST NEBRASKA AND IOWA...

CITY           SKY/WX    TMP DP  RH WIND       PRES   REMARKS
TOPEKA         PTCLDY    74  71  91 CALM      29.92F
MANHATTAN      PTCLDY    74  71  91 CALM      29.91F
EMPORIA        MOCLDY    72  67  84 S8        29.92F
CHANUTE        PTCLDY    69  67  93 S6        29.94S
WICHITA        CLOUDY    74  67  78 S7        29.92F
OMAHA          MOCLDY    72  62  71 E8        29.95F
LINCOLN        CLOUDY    71  65  81 E9        29.95F
FALLS CITY     PTCLDY    70  69  97 NE3       29.93S
LAMONI         MOCLDY    69  63  81 E5        29.96S
DES MOINES     PTCLDY    69  59  70 CALM      29.94F

$$




USA.gov is the U.S. government's official web portal to all federal, state and local government web resources and services.